Location: Pine Creek
(45.5072°N, 110.5649°W)
Time: 17:14:39
(UTC+00:00)

Envisat - Pass Details

Date: 28 January 2022
Orbit: 764 x 765 km, 98.2° (Epoch: 19 May)

Event Time Altitude Azimuth Distance (km) Brightness Sun altitude
Rises 11:23:54 0° 24° (NNE) 3,241 6.6 -35.7°
Reaches altitude 10° 11:26:33 10° 36° (NE) 2,310 5.9 -35.2°
Maximum altitude 11:30:52 27° 94° (E) 1,433 4.9 -34.5°
Drops below altitude 10° 11:35:09 10° 152° (SSE) 2,296 5.6 -33.7°
Sets 11:37:46 0° 164° (SSE) 3,218 6.3 -33.3°
